Showing default

GGSE 4, 2828

Orbit data source: Space-Track

GGSE 4, 2828 is an American payload satellite in LEO that was launched on Wed, 31 May 1967 UTC via a THOR SLV-2 AGENA D launch vehicle from the Air Force Western Test Range (AFWTR). Payload-class satellites include a variety of spacecraft equipped with specific instruments for various scientific and technological missions. These include communications satellites like Starlink; space stations such as the ISS; scientific satellites like the Hubble; Earth observation satellites from companies like Planet Labs, Umbra, and HawkEye 360; GPS; miniature CubeSats for education and research; and military/defense satellites.

Loading next visibility...
Identifier
2828, 1967-053C
Orbit
LEO
Country
Flag of USUS
Related business
Manufacturer
NRL
Mission
Spacecraft
Bus & Motor
NRL MULTI, Unknown motor
Mass
85 kg wet, 85 kg dry
Launch date (UTC)
1967-05-31 (58 years ago)
Launch vehicle
THOR SLV-2 AGENA D
Launch site
Air Force Western Test Range (AFWTR)
Object type
Payload
Rocket body
Debris
Shape & HBR
Unknown
Radar Cross Section
Medium (>0.1 m² and <1 m²)

Expand to show TLE details & history
Last TLE update: 7 hours ago

TLE from 7 hours ago
0 GGSE 4
1 02828U 67053C   25293.19113044  .00000141  00000-0  13659-3 0  9998
2 02828  69.9712 218.4683 0005350 137.8271 222.3248 13.98018623974622
Epoch: 2025-10-20T04:35Z
TLE epoch observation values (Epoch: 2025-10-20T04:35:13.670Z)
Latitude
0.00001°
Longitude
120.76436°
Altitude
905.857 km
Speed
7.398 km/s
True Right ascension
14h 33m 52s
True Declination
0° 00' 00"
Sunlit
Object was in daylight at epoch
Visualization orbit readout
Latitude
Unknown
Longitude
Unknown
Altitude
Unknown
Speed
Unknown
Apparent Right ascension
Unknown
Apparent Declination
Unknown
Sunlit
N/A
Visualization observer readout
Local Sidereal Time
06:23:14
Azimuth
Unknown
Elevation
Unknown
Doppler factor
Unknown
Orbital elements
Apogee altitude
902.602 km
Perigee altitude
894.815 km
Semi-major axis
7,276.846 km
Eccentricity
0.00054
Inclination
69.9712°
RAAN
218.4683°
Arg. of periapsis
137.8271°
True anomaly
222.28354°
Mean anomaly
222.3248°
Eccentric anomaly
222.30417°
Mean motion
3.49646 °/min
Orbital period
102.96 mins
BSTAR
0.00013659
Loading maneuver chart data...
Computing Atmospheric mass density...
Loading historical data...
Loading historical data...
Loading historical data...
Loading historical data...
Loading historical data...
Loading historical data...
Loading historical data...

Documentation

Showing up to 5 results
|